046  
ASHW40 PHFO 212343  
RWRHI  
 
WEATHER ROUNDUP FOR HAWAII  
NATIONAL WEATHER SERVICE HONOLULU HI  
100 PM HST TUE OCT 21 2014  
 
THIS IS AN AUTOMATED REPORT THAT HAS NOT BEEN QUALITY CONTROLLED.  
 
NOTE..."FAIR" INDICATES FEW OR NO CLOUDS BELOW 12,000 FEET WITH NO  
SIGNIFICANT WEATHER AND/OR S TO VISIBILITY
.  
 
* - THESE SITES REPORT LIMITED FIELDS  
 
HIZ001>004-220000-  
KAUAI-NIIHAU-  
 
CITY SKY/WX TMP DP RH WIND PRES REMARKS
 
LIHUE APT MOSUNNY 83 71 67 SE6 30.00F  
PORT ALLEN* N/A 84 N/A N/A SE9 N/A  
POIPU* N/A 86 N/A N/A E2 N/A  
PRINCEVILLE* N/A 86 N/A N/A MISG N/A  
KOKOLE POINT* NOT AVBL  
MOLOAA DAIRY* NOT AVBL  
WAIMEA HTS* N/A 88 64 45 E9G15 N/A  
PUU OPAE* N/A 79 70 73 SE7G14 N/A  
PUU LUA* NOT AVBL  
MAKAHA RIDGE* NOT AVBL  

 
 
HIZ005>011-220000-  
OAHU-  
 
CITY SKY/WX TMP DP RH WIND PRES REMARKS
 
HONOLULU CLOUDY 86 73 65 SE12 29.96F HX 93  
KALAELOA CLOUDY 85 73 67 SE10G16 29.98F HX 91  
KANEOHE MCB CLOUDY 85 73 67 E12 29.98F HX 91  
WHEELER FIELD PTSUNNY 82 66 57 E7 30.00F  
BELLOWS* N/A N/A N/A N/A E14 N/A  
KAHUKU* N/A N/A N/A N/A E8G17 N/A  
WHEELER* NOT AVBL  
WAIANAE HARBOR NOT AVBL  
DILLINGHAM* N/A 68 57 68 VRB2G12 N/A  
KAHUKU TRN* N/A 73 68 83 E8G16 N/A  
KAWAILOA* N/A 77 73 88 E3G12 N/A  
KII* N/A 82 75 78 E13G18 N/A  
MAKUA RANGE* N/A 82 72 69 W3 N/A  
OAHU FOREST NW N/A 70 70 100 NW5G14 N/A  
SCHOFIELD BRK* N/A 68 55 64 MISG N/A  
SCHOFIELD S* NOT AVBL  
WAIANAE VLY* N/A 88 75 66 S7G14 N/A HX 97  
KUAOKALA* N/A 77 68 73 CALM N/A  
HONOULIUULI* NOT AVBL  
MOKUOLOE IS* N/A N/A N/A N/A MISG N/A  
PALEHUA* N/A 97 75 49 CALM N/A HX 109  
WAIAWA PHB* NOT AVBL  

 
 
HIZ012>013-220000-  
MOLOKAI-  
 
CITY SKY/WX TMP DP RH WIND PRES REMARKS
 
MOLOKAI AIRPT PTSUNNY 82 75 79 NE12G17 29.99F  
KALAUPAPA NOT AVBL  
MAKAPULAPAI* N/A 86 75 70 E15G21 N/A HX 95  
MOLOKAI 1* N/A 82 68 61 SE3G15 N/A  
PUU ALII* N/A 69 63 82 E1 N/A  

 
 
HIZ016-220000-  
KAHOOLAWE-  
 
CITY SKY/WX TMP DP RH WIND PRES REMARKS
 
KAHOOLAWE* N/A 79 N/A N/A E16G25 N/A  
HAKIOAWA* NOT AVBL  
HONOKANAIA* N/A 87 73 62 E15G26 29.98F HX 94  
KANELOA* N/A 81 70 69 E18G31 29.22F  
KEALIALALO* NOT AVBL  
LUA MAKIKA* NOT AVBL  

 
 
HIZ014>015-220000-  
LANAI-  
 
CITY SKY/WX TMP DP RH WIND PRES REMARKS
 
LANAI CITY N/A N/A N/A N/A MISG N/A  
LANAI 1* N/A 79 75 89 NE14G22 N/A  

 
 
HIZ017>028-220000-  
MAUI-  
 
CITY SKY/WX TMP DP RH WIND PRES REMARKS
 
KAHULUI MOSUNNY 89 70 53 NE17 29.95F HX 94  
KAPALUA-W MAUI MOSUNNY 82 73 74 NE14 29.96  
HANA AIRPORT PTSUNNY 82 73 74 E10 29.98F  
HANA* N/A 82 N/A N/A E8G17 N/A  
HALEAKALA SUMM N/A 54 39 58 NE15G28 N/A  
MAALAEA BAY* NOT AVBL  
HALEAKALA* NOT AVBL  
KAUPO GAP* N/A 75 61 60 SE7G16 N/A  
KULA 1* N/A 66 59 77 NW6G12 N/A  

 
 
HIZ023>026-220000-  
BIG ISLAND OF HAWAII COAST AND LOWER SLOPES-  
 
CITY SKY/WX TMP DP RH WIND PRES REMARKS
 
KAILUA KONA MOSUNNY 87 72 60 W9 29.95F HX 93  
HILO SUNNY 87 71 58 SE10 29.97F HX 93  
HONOKAA* NOT AVBL  
KAWAIHAE MWT* N/A 86 N/A N/A W7 N/A  
KAWAIHAE* N/A 82 N/A N/A W6 N/A  
SOUTH POINT* N/A 79 N/A N/A E16G25 N/A  
UPOLU AIRPORT* N/A N/A N/A N/A NE17G24 N/A  
KAMUELA* PTCLDY 81 64 57 SW8 30.07F  
HAKALAU* N/A 70 49 48 S5G12 N/A  
KALOKO-HONOKO* N/A 84 73 70 W9 29.94F HX 91  
PALI 2* N/A 79 -2 4 SE14G21 N/A  
KEALAKOMO* N/A 86 70 58 E12 N/A HX 90  
KAUPULEHU* N/A 82 68 61 W10G16 N/A  
KAPAPALA* N/A 82 66 57 E1G12 N/A  
LOWER KAHUKU* NOT AVBL  
PUHE CS* NOT AVBL  
PUHO CS* N/A 86 71 61 W3G10 N/A HX 92  
PTA KEAMUKU* N/A 72 63 73 W9G16 N/A  
WAIKOLOA* N/A 84 68 58 W8G15 N/A  

 
 
HIZ027>028-220000-  
BIG ISLAND OF HAWAII INTERIOR AND SUMMMITS-  
 
CITY SKY/WX TMP DP RH WIND PRES REMARKS
 
BRADSHAW FIELD MOSUNNY 72 48 43 SE17G28 30.32F  
MK VISITOR CEN NOT AVBL  
MAUNA KEA* N/A 48 18 29 S1 N/A  
MAUNA LOA* N/A 57 32 38 MISG N/A  
MAUNA LOA 1* NOT AVBL  
PTA KIPUKA* N/A 72 59 64 NW5G13 N/A  
PTA RANGE 17* N/A 68 59 73 NW9G15 N/A  
PTA WEST* N/A 72 64 78 NW12G18 N/A  
NENE CABIN* NOT AVBL  
AHUMOA* N/A 61 58 91 VRB3G10 N/A  
PTA PORTABLE* NOT AVBL  
PUU MALI* NOT AVBL  

 
 
HIC003-220000-  
NORTHWEST ISLANDS-  
 
CITY SKY/WX TMP DP RH WIND PRES REMARKS
 
MIDWAY ISLAND SUNNY 86 75 70 S8 29.97F HX 95  
MIDWAY NOS* NOT AVBL  
FRENCH FRIGATE NOT AVBL  

 
 
PHZ110>124-180-220000-  
BUOY REPORTS  
 
STATION/POSITION TIME TEMP WIND PRES WAVE SWELL
 
AIR SEA DIR/SP/G HT/PER HT/DIR  
(UTC) (F) (DEG/KT/KT) (MB) (FT/S) (FT/D)  
BUOY 51001 NOT AVBL  
BUOY 51101 NOT AVBL  
BUOY 51100 2300 79 80 90/ 14/ 17 1016.6F  
BUOY 51003 2300 82 82 130/ 14/ 16 1014.3F 8/13 7  
BUOY 51004 2242 80 81 80/ 16/ 17 1013.9F 7/ 9 7/ 10  
BARBERS PT BUOY NOT AVBL  
WAIMEA BAY BUOY 2300 82 N/A 7/12 5/350  
KAILUA BAY BUOY 2300 82 N/A 8/12 5/360  
LANAI BUOY 2300 82 N/A 3/13 2/200  
BARBERS PT 2 2300 82 N/A 5/ 8 3/280  
PAUWELA MAUI 2300 81 N/A 7/13 5/350  
HILO 2300 81 N/A 8/13 5/360  
KANEOHE BAY BUOY NOT AVBL  
HANALEI KAUAI NOT AVBL  
KAHULUI HARBOR 2300 83 81 50/ 10/ 15 1013.8F  
HONOLULU HARBOR 2300 87 120/ 5/ 8 1014.7F  
KILO NALU NOT AVBL  
HILO HARBOR 2300 94 130/ 9/ 13 1013.9F  
MOKUOLOE 2300 82 1015.3F  
NAWILIWILI 2300 82 N/A  
WHOTS BUOY NOT AVBL  
BUOY 51028 NOT AVBL  

 
   
.....................KEY.....................................
 
 
SKY/WX - SKY CONDITIONS/PRESENT WEATHER  
TMP - TEMPERATURE IN FAHRENHEIT  
DWPT - DEWPOINT IN FAHRENHEIT  
RH - RELATIVE HUMIDITY IN PERCENT  
WIND - DIRECTION AND SPEED /MPH FOR ISLANDS...KTS FOR BUOYS/  
PRES - MEAN SEA LEVEL PRESSURE IN INCHES OF HG  
VSB - VISIBILITY IN MILES  
HX - HEAT INDEX  
WCI - WIND CHILL INDEX  
VRB - VARIABLE WIND DIRECTION  
N/A - NOT AVAILABLE  
 
CLICK HERE TO GO TO PREVIOUS BULLETINS.

The Nexlab HI Page Main Text Page

The Nexlab HI Page Main Text Page